Regional Weather Roundup
Issued by NWS Nashville, TN

Current Version | Previous Version | Text Only | Print | Product List | Glossary Off
Versions: 1 2 3 4 5 6 7 8 9 10 11 12 13 14 15 16 17 18 19 20 21 22 23 24 25 26 27 28 29 30 31 32 33 34 35 36 37 38 39 40 41 42 43 44 45 46 47 48 49 50

000
ASUS44 KOHX 030415
RWROHX
MIDDLE TENNESSEE HOURLY WEATHER ROUNDUP
NATIONAL WEATHER SERVICE NASHVILLE TN
1100 PM CDT TUE SEP 02 2014

NOTE: "FAIR" INDICATES FEW OR NO CLOUDS BELOW 12,000 FEET WITH
NO SIGNIFICANT WEATHER AND/OR OBSTRUCTIONS TO VISIBILITY.

* THESE REPORTS ARE NOT UNDER NWS QUALITY CONTROL AND MAY NOT
  REPORT WEATHER SUCH AS PRECIPITATION AND FOG.


TNZ005>011-023>034-057-059-062>066-078-080-030500
...NORTHERN MIDDLE TENNESSEE...

CITY           SKY/WX    TMP DP  RH WIND       PRES   REMARKS
CLARKSVILLE    CLOUDY    73  71  93 CALM      30.02R
CROSSVILLE     LGT RAIN  70  67  90 CALM      30.10S
GALLATIN         N/A     72  72 100 E3        30.04R
DICKSON        CLOUDY    72  70  94 W3        30.03S
LIVINGSTON     CLOUDY    69  69 100 S3        30.05F
NASHVILLE      CLOUDY    73  72  94 SW8       30.03S
WEST NASHVILLE CLOUDY    72  72 100 CALM      30.03R
PORTLAND       CLOUDY    72  72 100 CALM      30.03R
SMYRNA         CLOUDY    74  73  96 S9        30.04S
SPARTA           N/A     72  70  94 CALM      30.07R
$$
TNZ056-058-060-061-075>077-079-093>097-030500
...SOUTHERN MIDDLE TENNESSEE...

CITY           SKY/WX    TMP DP  RH WIND       PRES   REMARKS
COLUMBIA         N/A     75  75 100 CALM      30.03R
FAYETTEVILLE   CLOUDY    73  72  94 CALM      30.06S
LEWISBURG      CLOUDY    76  72  87 CALM      30.04R
MCMINNVILLE    MOCLDY    73  73 100 CALM      30.07R
SHELBYVILLE    CLOUDY    75  73  94 N5        30.06R
TULLAHOMA      CLOUDY    73  70  88 N3        30.07S
WINCHESTER     CLOUDY    73  72  94 CALM      30.06R
$$


...KEY TO REMARKS...
VSB - VISIBILITY IN MILES
WCI - WIND CHILL INDEX
HX  - HEAT INDEX




USA.gov is the U.S. government's official web portal to all federal, state and local government web resources and services.